Miscellaneous Local Product
Issued by NWS Hastings, NE

Home | Current Version | Previous Version | Graphics & Text | Print | Product List | Glossary On
Versions: 1 2 3 4 5 6 7 8 9 10 11 12 13 14 15 16 17 18 19 20 21 22 23 24 25 26 27 28 29 30 31 32 33 34 35 36 37 38 39 40 41 42 43 44 45 46 47 48 49 50
000
AXUS43 KGID 261902
MISGRI

GID CWA HOURLY WEATHER ROUNDUP
NATIONAL WEATHER SERVICE HASTINGS NE
200 PM CDT SUN JUL 26 2015

NOTE: "FAIR" INDICATES FEW OR NO CLOUDS BELOW 12,000 FEET WITH NO
SIGNIFICANT WEATHER AND/OR OBSTRUCTIONS TO VISIBILITY.

...SOUTH CENTRAL NEBRASKA...

CITY           SKY/WX    TMP DP  RH WIND       PRES   REMARKS
GRAND ISLAND   MOSUNNY   86  75  69 E5        29.92F HX  95
HASTINGS       MOSUNNY   87  76  69 SE7       29.93F HX  97
KEARNEY        SUNNY     88  75  66 SE8       29.93F HX  97
ORD            SUNNY     88  74  63 E9        29.91S HX  96
YORK           CLOUDY    84  77  79 CALM      29.92S HX  94
AURORA         MOSUNNY   85  78  79 E3        29.92F HX  95
LEXINGTON      SUNNY     89  71  54 E9        29.94F HX  95
HOLDREGE       SUNNY     87  70  57 S6        29.94S HX  92
HEBRON         SUNNY     88  74  62 W7        29.91S HX  96

...NEBRASKA PANHANDLE...

CITY           SKY/WX    TMP DP  RH WIND       PRES   REMARKS
CHADRON        SUNNY     94  58  29 NW8       29.89F HX  93
ALLIANCE       MOSUNNY   88  63  43 S7        29.94F
SCOTTSBLUFF    SUNNY     93  58  30 N7        29.95F HX  92
SIDNEY         MOSUNNY   93  61  34 SE17G25   29.99F HX  93

...WESTERN AND NORTH CENTRAL NEBRASKA...

CITY           SKY/WX    TMP DP  RH WIND       PRES   REMARKS
VALENTINE      SUNNY     95  63  34 SE16      29.91F HX  96
AINSWORTH      SUNNY     89  69  50 E14       29.94F HX  93
ONEILL         SUNNY     85  74  69 NE8       29.93F HX  93
BROKEN BOW     SUNNY     93  73  52 SE7       29.93F HX 102
IMPERIAL       SUNNY     90  68  48 E10       29.96F HX  94
NORTH PLATTE   SUNNY     90  71  53 E12       29.93F HX  96
MCCOOK         SUNNY     90  71  53 E8        29.93F HX  96

...EASTERN NEBRASKA...

CITY           SKY/WX    TMP DP  RH WIND       PRES   REMARKS
NORFOLK        PTSUNNY   84  73  69 VRB5      29.91F HX  90
SO SIOUX CITY  PTSUNNY   85  71  63 N3        29.89F HX  90
TEKAMAH        CLOUDY    86  75  69 CALM      29.88F HX  95
COLUMBUS       CLOUDY    84  73  70 CALM      29.90F HX  91
ALBION         CLOUDY    81  71  71 SE6       29.93S
OMAHA EPPLEY   PTSUNNY   87  75  67 VRB3      29.88F HX  96
OFFUTT AFB     MOSUNNY   86  76  72 S3        29.88S HX  96
MILLARD        PTSUNNY   85  75  72 SW3       29.89S HX  94
LINCOLN        SUNNY     87  75  67 CALM      29.89F HX  96
BEATRICE       PTSUNNY   87  78  74 W5        29.90S HX  98
FALLS CITY     SUNNY     87  79  76 SE8       29.88F HX 101

...NORTHERN KANSAS...

CITY           SKY/WX    TMP DP  RH WIND       PRES   REMARKS
GOODLAND       SUNNY     94  64  37 SE10      29.98F HX  95
HILL CITY      SUNNY     92  70  48 S7        29.92F HX  97
NORTON         CLEAR     88  66  48 SE6       29.93F HX  90
SMITH CENTER   SUNNY     88  72  58 SE7       29.91F HX  94
HAYS           MOSUNNY   91  68  46 SE7       29.92F HX  95
RUSSELL        MOSUNNY   92  68  45 SE12      29.90F HX  96
CONCORDIA      SUNNY     89  70  53 SW8       29.90F HX  94
SALINA         SUNNY     95  70  44 S6        29.89F HX 101
TOPEKA         SUNNY     92  73  53 VRB3      29.89F HX 100



USA.gov is the U.S. government's official web portal to all federal, state and local government web resources and services.